Regional Weather Roundup
Issued by NWS

Home | Current Version | Previous Version | Graphics & Text | Print | Product List | Glossary Off
Versions: 1 2 3 4 5 6 7 8 9 10 11 12 13 14 15 16 17 18 19 20 21 22 23 24 25 26 27 28 29 30 31 32 33 34 35 36 37 38 39 40 41 42 43 44 45 46 47 48 49 50

000
ASUS43 KDTX 172010
RWRMI
MICHIGAN HOURLY REGIONAL WEATHER ROUNDUP
NATIONAL WEATHER SERVICE DETROIT/PONTIAC MI
400 PM EDT FRI APR 17 2015

NOTE: "FAIR" INDICATES FEW OR NO CLOUDS BELOW 12,000 FEET WITH NO
SIGNIFICANT WEATHER AND/OR OBSTRUCTION TO VISIBILITY.

MIZ047>049-052>055-059>063-066>070-074>076-081>083-172100-
SOUTHEAST LOWER MICHIGAN

CITY           SKY/WX    TMP DP  RH WIND       PRES   REMARKS
ADRIAN         SUNNY     75  37  25 VRB3      30.02F
ALMA           PTSUNNY   74  35  24 W3        29.99F
ANN ARBOR      MOSUNNY   75  35  23 VRB5      30.00F
BAD AXE        MOSUNNY   69  37  30 W6        30.01F
CARO           MOSUNNY   73  40  31 NW8       30.00F
DETROIT CITY   SUNNY     71  46  40 SE12      30.01F
DETROIT        MOSUNNY   73  46  38 SE9       30.01F
FLINT          SUNNY     77  39  25 W9G18     30.00F
GROSSE ILE     SUNNY     63  46  55 SE9       30.02F
HILLSDALE      MOSUNNY   75  39  27 NW8G20    30.02F
HOWELL         CLOUDY    74  36  24 NW9       30.00F

CITY           SKY/WX    TMP DP  RH WIND       PRES   REMARKS
JACKSON        PTSUNNY   76  38  25 NW10      30.01F
LAMBERTVILLE   SUNNY     75  36  23 SW7       30.02F
LANSING        SUNNY     76  38  25 W9G17     30.01F
LAPEER         FAIR      73  35  25 CALM      30.01F
MASON          PTSUNNY   74  37  26 W6        30.01F
MONROE         SUNNY     70  46  43 SE8       30.01F
MT. CLEMENS    MOSUNNY   69  47  46 S12       30.00F
PONTIAC        PTSUNNY   73  36  25 VRB6      30.00F
PORT HOPE        N/A     54  46  74 SE14      30.01F
PORT HURON     SUNNY     66  46  48 NE8       30.02F
TRI CITIES     PTSUNNY   73  40  30 VRB3      29.99F
TROY           MOSUNNY   74  34  22 CALM      30.02F
SAGINAW HB     PTSUNNY   73  37  27 W8        29.99F
$$
MIZ043>046-050>051-056>058-064>065-071>073-077>080-172100-
SOUTHWEST LOWER MICHIGAN

CITY           SKY/WX    TMP DP  RH WIND       PRES   REMARKS
BATTLE CREEK   MOSUNNY   76  39  26 NW10      30.02F
BENTON HARBOR  SUNNY     70  44  39 W7        30.04F
BIG RAPIDS     MOSUNNY   74  36  24 NW7       29.99F
COLDWATER      MOSUNNY   73  39  29 SW3       30.02F
FREMONT        FAIR      74  33  22 W13       30.00F
HOLLAND        SUNNY     68  45  43 W9        30.04F
GRAND RAPIDS   PTSUNNY   75  38  26 W13       30.01F
IONIA          FAIR      76  37  24 W13       30.00F
KALAMAZOO      MOSUNNY   77  42  28 W12G20    30.02F
LUDINGTON      SUNNY     52  41  66 W5        30.04F
MARSHALL       CLOUDY    74  41  30 W5G18     30.00F
MOUNT PLEASANT PTSUNNY   73  39  28 CALM      29.98F
MUSKEGON       PTSUNNY   64  39  39 SW9       30.03F
SOUTH HAVEN    SUNNY     73  38  28 NW6       30.04F
$$
MIZ016>042-172100-
NORTHERN LOWER MICHIGAN

CITY           SKY/WX    TMP DP  RH WIND       PRES   REMARKS
ALPENA         MOSUNNY   61  39  44 E12       29.99F
BEAVER ISLAND  SUNNY     62  29  28 SW3       30.03S
BELLAIRE       SUNNY     68  40  35 W7        30.00F
CADILLAC       SUNNY     71  39  30 NW9G17    30.00F
CHARLEVOIX     SUNNY     58  36  45 N5        30.05F
FRANKFORT      SUNNY     69  32  25 S3        30.02F
GAYLORD        SUNNY     67  39  35 NW8       30.00F
GRAYLING       SUNNY     71  37  29 NW7       30.00F
HARBOR SPRINGS SUNNY     42  36  77 SW7       30.02F
HOUGHTON LAKE  PTSUNNY   71  39  31 W6        30.00F
MANISTEE       SUNNY     55  39  54 W8        30.04F
OSCODA         PTSUNNY   66  41  39 S8        29.98F
PELLSTON       SUNNY     66  25  21 W13       30.02F
ROGERS CITY    SUNNY     59  41  51 N10       30.01F
TRAVERSE CITY  MOSUNNY   61  41  47 N6        30.01F
$$
MIZ007>008-015-172100-
EASTERN UPPER MICHIGAN

CITY           SKY/WX    TMP DP  RH WIND       PRES   REMARKS
KINROSS        SUNNY     57  27  30 N12       30.01F
MACKINAC ISLAN SUNNY     54  37  52 SW8       30.01F
NEWBERRY       SUNNY     58  28  31 NW8       30.02F
S. S. MARIE    SUNNY     55  32  41 W13       30.01F
MUNISING         N/A     42  32  67 N3        30.05F
$$
MIZ004>006-011>014-085-172100-
CENTRAL UPPER MICHIGAN

CITY           SKY/WX    TMP DP  RH WIND       PRES   REMARKS
MANISTIQUE     SUNNY     53  38  57 SW5       30.02S
ESCANABA       SUNNY     57  36  44 S13       30.01F
MENOMINEE      SUNNY     61  39  44 SE13      30.01F
SAWYER-GWINN   SUNNY     63  32  31 E5        30.01F
$$
MIZ001>003-009>011-084-172100-
WESTERN UPPER MICHIGAN

CITY           SKY/WX    TMP DP  RH WIND       PRES   REMARKS
IRON MOUNTAIN  MOSUNNY   72  37  28 NE3       29.96F
HOUGHTON       SUNNY     64  32  30 N10G18    30.00F
COPPER HARBOR    N/A     58  32  37 VRB6      30.01F
IRONWOOD       SUNNY     64  34  32 N8        29.98F
$$

ABBREVIATIONS USED IN REMARKS
   TC - TEMPERATURE IN CELSIUS
  WCI - WIND CHILL INDEX
   HX - HEAT INDEX
  VSB - VISIBILITY




USA.gov is the U.S. government's official web portal to all federal, state and local government web resources and services.